Skip Page Navigation
NASA JPL Caltech
NASA Logo - Jet Propulsion Laboratory + View the NASA Portal
+ Center for Near-Earth Object Studies
JPL Home Earth Solar System Stars & Galaxies Technology
JPL Solar System Dynamics
BODIES ORBITS EPHEMERIDES TOOLS PHYSICAL DATA DISCOVERY FAQ SITE MAP
JPL Small-Body Database Browser
Search: [ help ]  
351040 (2003 SC170)
Classification: Main-belt Asteroid          SPK-ID: 2351040
Ephemeris | Orbit Diagram | Orbital Elements | Mission Design | Physical Parameters | Discovery Circumstances ]

[ show orbit diagram ]
Orbital Elements at Epoch 2459000.5 (2020-May-31.0) TDB
Reference: JPL 7 (heliocentric ecliptic J2000)
 Element Value Uncertainty (1-sigma)   Units 
e .1155416476135325 1.9273e-07  
a 2.554419624529448 4.5904e-08 au
q 2.259277772414975 4.8097e-07 au
i 11.96644308490855 1.3487e-05 deg
node 343.972361992642 7.0264e-05 deg
peri 78.15637787820006 0.00013173 deg
M 322.3386546923242 0.00012516 deg
tp 2459156.501982917248
(2020-Nov-03.00198292)
0.00052072 TDB
period 1491.20307284305
4.08
4.0197e-05
1.101e-07
d
yr
n .2414158115390969 6.5076e-09 deg/d
Q 2.849561476643921 5.1208e-08 au
  Orbit Determination Parameters
   # obs. used (total)      101  
   data-arc span      8683 days (23.77 yr)  
   first obs. used      1995-09-23  
   last obs. used      2019-07-02  
   planetary ephem.      DE431  
   SB-pert. ephem.      SB431-N16  
   condition code      0  
   norm. resid. RMS      .60063  
   source      ORB  
   producer      Otto Matic  
   solution date      2019-Sep-24 06:36:48  

Additional Information
 Earth MOID = 1.30636 au 
 Jupiter MOID = 2.47021 au 
 T_jup = 3.399 
[ show covariance matrix ]

Ephemeris | Orbit Diagram | Orbital Elements | Mission Design | Physical Parameters | Discovery Circumstances ]

Physical Parameter Table
Parameter Symbol Value Units Sigma Reference Notes
absolute magnitude H 16.6   n/a MPO450317  

351040 (2003 SC170)          Discovered 2003-Sep-22 by Sarneczky, K., Sipocz, B. at Piszkesteto
Reference: 20130127/Numbers.arcLast Updated: 2013-01-31

Alternate Designations
 2003 SC170 = 2008 YN13 
Ephemeris | Orbit Diagram | Orbital Elements | Mission Design | Physical Parameters | Discovery Circumstances ]
ABOUT SSD CREDITS/AWARDS PRIVACY/COPYRIGHT GLOSSARY LINKS
FirstGov 2020-Oct-25 06:27 UT
(server date/time)  
NASA Home Page
Site Manager:   Ryan S. Park
Webmaster  Alan B. Chamberlin